When you browse on this site, cookies collect data to enhance your experience and personalize the content and advertising you see.
Visit our Privacy Policy to learn more. By continuing to use the site, you agree to this use of cookies and data.

Hourly Weather Ashkelon

Today, 12 August, Wednesday

Time Temperature Precipitation Wind Pressure Humidity
00:00 +25°C° 0 mm 1 mps 753 mmHg 84%
01:00 +25°C° 0 mm 1 mps 753 mmHg 82%
02:00 +26°C° 0 mm 2 mps 753 mmHg 78%
03:00 +26°C° 0 mm 2 mps 753 mmHg 77%
04:00 +26°C° 0 mm 2 mps 753 mmHg 75%
05:00 +27°C° 0 mm 2 mps 753 mmHg 74%
06:00 +28°C° 0 mm 2 mps 753 mmHg 68%
07:00 +29°C° 0 mm 2 mps 753 mmHg 63%
08:00 +30°C° 0 mm 2 mps 753 mmHg 59%
09:00 +31°C° 0 mm 3 mps 753 mmHg 57%
10:00 +31°C° 0 mm 3 mps 753 mmHg 55%
11:00 +33°C° 0 mm 4 mps 753 mmHg 53%
12:00 +33°C° 0 mm 4 mps 753 mmHg 53%
13:00 +34°C° 0 mm 5 mps 752 mmHg 53%
14:00 +34°C° 0 mm 5 mps 752 mmHg 53%
15:00 +33°C° 0 mm 5 mps 752 mmHg 56%
16:00 +32°C° 0 mm 5 mps 752 mmHg 58%
17:00 +32°C° 0 mm 4 mps 752 mmHg 61%
18:00 +29°C° 0 mm 4 mps 753 mmHg 68%
19:00 +28°C° 0 mm 3 mps 753 mmHg 75%
20:00 +27°C° 0 mm 2 mps 753 mmHg 83%
21:00 +26°C° 0 mm 2 mps 753 mmHg 85%
22:00 +26°C° 0 mm 1 mps 753 mmHg 87%
23:00 +25°C° 0 mm 1 mps 753 mmHg 89%

Tomorrow, 13 August, Thursday

Time Temperature Precipitation Wind Pressure Humidity
00:00 +25°C° 0 mm 1 mps 753 mmHg 89%
01:00 +25°C° 0 mm 1 mps 752 mmHg 89%
02:00 +24°C° 0 mm 1 mps 752 mmHg 90%
03:00 +24°C° 0 mm 1 mps 752 mmHg 90%
04:00 +24°C° 0 mm 1 mps 752 mmHg 90%
05:00 +24°C° 0 mm 1 mps 752 mmHg 90%
06:00 +26°C° 0 mm 2 mps 752 mmHg 83%
07:00 +28°C° 0 mm 2 mps 752 mmHg 75%
08:00 +30°C° 0 mm 2 mps 752 mmHg 67%
09:00 +31°C° 0 mm 3 mps 752 mmHg 61%
10:00 +34°C° 0 mm 4 mps 752 mmHg 54%
11:00 +35°C° 0 mm 4 mps 752 mmHg 48%
12:00 +35°C° 0 mm 5 mps 751 mmHg 48%
13:00 +35°C° 0 mm 5 mps 751 mmHg 49%
14:00 +35°C° 0 mm 5 mps 750 mmHg 49%
15:00 +34°C° 0 mm 5 mps 750 mmHg 53%
16:00 +33°C° 0 mm 5 mps 750 mmHg 57%
17:00 +32°C° 0 mm 5 mps 750 mmHg 61%
18:00 +30°C° 0 mm 4 mps 751 mmHg 70%
19:00 +28°C° 0 mm 3 mps 751 mmHg 78%
20:00 +27°C° 0 mm 2 mps 751 mmHg 87%
21:00 +26°C° 0 mm 2 mps 751 mmHg 88%
22:00 +26°C° 0 mm 1 mps 751 mmHg 89%
23:00 +25°C° 0 mm 1 mps 751 mmHg 90%

Day after tomorrow, 14 August, Friday

Time Temperature Precipitation Wind Pressure Humidity
00:00 +25°C° 0 mm 1 mps 751 mmHg 90%
01:00 +25°C° 0 mm 1 mps 751 mmHg 90%
02:00 +22°C° 0 mm 0 mps 751 mmHg 91%
03:00 +24°C° 0 mm 1 mps 751 mmHg 91%
04:00 +24°C° 0 mm 1 mps 751 mmHg 91%
05:00 +24°C° 0 mm 2 mps 750 mmHg 91%
06:00 +26°C° 0 mm 2 mps 751 mmHg 83%
07:00 +28°C° 0 mm 3 mps 751 mmHg 75%
08:00 +30°C° 0 mm 3 mps 751 mmHg 67%
09:00 +33°C° 0 mm 4 mps 751 mmHg 59%
10:00 +34°C° 0 mm 4 mps 750 mmHg 51%
11:00 +36°C° 0 mm 5 mps 750 mmHg 44%
12:00 +36°C° 0 mm 5 mps 750 mmHg 45%
13:00 +36°C° 0 mm 6 mps 750 mmHg 46%
14:00 +36°C° 0 mm 6 mps 749 mmHg 48%
15:00 +35°C° 0 mm 5 mps 749 mmHg 51%
16:00 +34°C° 0 mm 5 mps 749 mmHg 54%
17:00 +33°C° 0 mm 4 mps 749 mmHg 58%
18:00 +30°C° 0 mm 3 mps 749 mmHg 67%
19:00 +28°C° 0 mm 2 mps 750 mmHg 77%
20:00 +26°C° 0 mm 1 mps 750 mmHg 87%
21:00 +26°C° 0 mm 1 mps 750 mmHg 87%
22:00 +25°C° 0 mm 1 mps 750 mmHg 87%
23:00 +25°C° 0 mm 1 mps 750 mmHg 88%

15 August, Saturday

Time Temperature Precipitation Wind Pressure Humidity
00:00 +25°C° 0 mm 1 mps 749 mmHg 88%
01:00 +24°C° 0 mm 1 mps 749 mmHg 89%
02:00 +24°C° 0 mm 1 mps 749 mmHg 89%
03:00 +25°C° 0 mm 2 mps 749 mmHg 89%
04:00 +25°C° 0 mm 2 mps 749 mmHg 89%
05:00 +25°C° 0 mm 2 mps 749 mmHg 89%
06:00 +27°C° 0 mm 2 mps 749 mmHg 81%
07:00 +29°C° 0 mm 3 mps 749 mmHg 73%
08:00 +30°C° 0 mm 3 mps 750 mmHg 65%
09:00 +33°C° 0 mm 4 mps 749 mmHg 58%
10:00 +35°C° 0 mm 4 mps 749 mmHg 51%
11:00 +37°C° 0 mm 5 mps 749 mmHg 44%
12:00 +36°C° 0 mm 5 mps 749 mmHg 45%
13:00 +36°C° 0 mm 5 mps 749 mmHg 45%
14:00 +36°C° 0 mm 6 mps 749 mmHg 46%
15:00 +35°C° 0 mm 5 mps 749 mmHg 49%
16:00 +34°C° 0 mm 4 mps 749 mmHg 52%
17:00 +33°C° 0 mm 4 mps 748 mmHg 55%
18:00 +31°C° 0 mm 3 mps 749 mmHg 65%
19:00 +29°C° 0 mm 2 mps 749 mmHg 75%
20:00 +27°C° 0 mm 2 mps 750 mmHg 85%
21:00 +26°C° 0 mm 1 mps 749 mmHg 86%
22:00 +25°C° 0 mm 1 mps 749 mmHg 86%
23:00 +23°C° 0 mm 0 mps 749 mmHg 86%

16 August, Sunday

Time Temperature Precipitation Wind Pressure Humidity
00:00 +24°C° 0 mm 1 mps 749 mmHg 86%
01:00 +24°C° 0 mm 1 mps 749 mmHg 87%
02:00 +24°C° 0 mm 1 mps 749 mmHg 87%
03:00 +24°C° 0 mm 1 mps 749 mmHg 87%
04:00 +24°C° 0 mm 2 mps 749 mmHg 87%
05:00 +24°C° 0 mm 2 mps 749 mmHg 87%
06:00 +26°C° 0 mm 2 mps 749 mmHg 79%
07:00 +28°C° 0 mm 2 mps 750 mmHg 71%
08:00 +30°C° 0 mm 3 mps 750 mmHg 63%
09:00 +33°C° 0 mm 3 mps 750 mmHg 54%
10:00 +35°C° 0 mm 4 mps 750 mmHg 46%
11:00 +37°C° 0 mm 4 mps 750 mmHg 37%
12:00 +37°C° 0 mm 5 mps 750 mmHg 39%
13:00 +37°C° 0 mm 5 mps 750 mmHg 40%
14:00 +38°C° 0 mm 6 mps 749 mmHg 42%
15:00 +36°C° 0 mm 5 mps 749 mmHg 46%
16:00 +35°C° 0 mm 5 mps 749 mmHg 50%
17:00 +34°C° 0 mm 4 mps 749 mmHg 54%
18:00 +31°C° 0 mm 3 mps 749 mmHg 64%
19:00 +29°C° 0 mm 3 mps 750 mmHg 74%
20:00 +26°C° 0 mm 2 mps 750 mmHg 84%
21:00 +26°C° 0 mm 2 mps 750 mmHg 83%
22:00 +26°C° 0 mm 2 mps 750 mmHg 82%
23:00 +25°C° 0 mm 1 mps 750 mmHg 81%

17 August, Monday

Time Temperature Precipitation Wind Pressure Humidity
00:00 +25°C° 0 mm 1 mps 750 mmHg 82%
01:00 +24°C° 0 mm 1 mps 750 mmHg 84%
02:00 +23°C° 0 mm 1 mps 750 mmHg 85%
03:00 +24°C° 0 mm 1 mps 750 mmHg 86%
04:00 +24°C° 0 mm 2 mps 750 mmHg 87%
05:00 +24°C° 0 mm 2 mps 750 mmHg 89%
06:00 +26°C° 0 mm 2 mps 750 mmHg 82%
07:00 +28°C° 0 mm 2 mps 751 mmHg 74%
08:00 +30°C° 0 mm 2 mps 751 mmHg 67%
09:00 +31°C° 0 mm 3 mps 751 mmHg 60%
10:00 +34°C° 0 mm 4 mps 751 mmHg 52%
11:00 +36°C° 0 mm 4 mps 750 mmHg 45%
12:00 +36°C° 0 mm 4 mps 750 mmHg 45%
13:00 +35°C° 0 mm 5 mps 750 mmHg 46%
14:00 +35°C° 0 mm 5 mps 749 mmHg 47%
15:00 +34°C° 0 mm 5 mps 749 mmHg 48%
16:00 +34°C° 0 mm 5 mps 749 mmHg 49%
17:00 +33°C° 0 mm 4 mps 749 mmHg 50%
18:00 +30°C° 0 mm 4 mps 750 mmHg 59%
19:00 +28°C° 0 mm 3 mps 750 mmHg 69%
20:00 +26°C° 0 mm 3 mps 750 mmHg 78%
21:00 +25°C° 0 mm 2 mps 750 mmHg 80%
22:00 +24°C° 0 mm 1 mps 750 mmHg 82%
23:00 +23°C° 0 mm 1 mps 750 mmHg 84%
Show more